Location: Flotzheim
(48.8375°N, 10.8136°E)
Time: 17:32:37
(UTC+00:00)

ARGOS - Pass Details

Date: 23 January 2021
Orbit: 821 x 834 km, 98.4° (Epoch: 28 February)

Event Time Altitude Azimuth Distance (km) Brightness Sun altitude
Rises 16:35:55 0° 115° (ESE) 3,351 5.9 -6.1°
Reaches altitude 10° 16:38:57 10° 97° (E) 2,424 5.1 -6.6°
Maximum altitude 16:42:29 18° 56° (NE) 1,915 4.5 -7.1°
Drops below altitude 10° 16:46:01 10° 14° (NNE) 2,439 5.3 -7.7°
Sets 16:49:04 0° 357° (N) 3,379 6.2 -8.1°
